Date,TemperatureHighF,TemperatureAvgF,TemperatureLowF,DewpointHighF,DewpointAvgF,DewpointLowF,HumidityHigh,HumidityAvg,HumidityLow,PressureMaxIn,PressureMinIn,WindSpeedMaxMPH,WindSpeedAvgMPH,GustSpeedMaxMPH,PrecipitationSumIn
2013-1-1,45.5,39.5,35.3,43.3,34.7,21.8,92,84,52,30.14,29.98,3,0,12,0.02
2013-1-2,43.5,36.4,35.2,41.3,27.1,-99.9,92,80,71,30.17,29.95,0,-46,0,0.02
2013-1-3,43.3,33.9,28.8,32.4,26.2,-99.9,91,78,56,30.33,30.12,0,-22,0,0.00
2013-1-4,46.2,31.6,25.6,23.1,17.9,-99.9,79,61,28,30.42,30.29,0,0,0,0.00
2013-1-5,55.1,32.1,22.9,25.4,5.5,-99.9,81,48,22,30.47,30.23,0,-83,0,0.00
2013-1-6,53.2,38.7,35.5,35.2,25.8,-99.9,84,67,48,30.23,30.05,0,-39,0,0.00
2013-1-7,62.1,39.9,27.9,29.5,23.8,19.6,81,57,21,30.43,30.23,0,0,0,0.00
2013-1-8,63.9,43.5,30.1,39.9,31.2,24.0,81,64,38,30.47,30.29,0,0,0,0.00
2013-1-9,50.4,47.0,42.6,46.5,42.0,37.2,90,83,76,30.47,30.33,0,0,0,0.00
2013-1-10,70.9,54.2,46.4,50.9,47.0,43.1,92,78,48,30.49,30.27,0,0,0,0.00
2013-1-11,62.1,55.1,49.2,55.7,50.7,43.5,93,85,72,30.28,30.09,0,0,0,0.00
2013-1-12,75.8,62.9,57.3,59.0,55.6,53.3,91,79,50,30.14,30.00,0,0,0,0.00
2013-1-13,71.3,62.6,58.3,56.1,53.2,49.7,85,72,55,30.06,29.95,0,0,0,0.00
2013-1-14,60.4,50.7,43.3,56.6,42.8,-99.9,93,86,85,30.19,29.98,0,-39,0,0.00
2013-1-15,53.5,49.6,43.5,51.5,47.7,41.3,98,93,89,30.16,27.48,9,0,9,0.07
2013-1-16,57.2,52.2,49.4,55.5,51.3,48.6,99,97,89,30.07,29.98,3,0,7,0.37
2013-1-17,50.8,40.3,31.5,50.5,39.6,30.5,99,97,95,30.23,29.85,8,1,11,1.88
2013-1-18,47.7,34.0,27.0,30.8,27.4,23.5,96,79,41,30.47,30.23,6,0,9,0.09
2013-1-19,58.6,39.7,29.7,30.6,26.0,19.6,84,61,24,30.42,30.17,6,1,7,0.00
2013-1-20,56.2,42.3,29.9,34.7,29.5,20.4,88,62,38,30.17,30.09,9,1,10,0.00
2013-1-21,49.5,37.1,28.0,30.2,23.4,11.8,93,61,32,30.12,30.01,9,1,12,0.00
2013-1-22,31.4,24.2,18.1,12.9,3.3,-5.1,61,42,21,30.21,30.05,8,2,11,0.00
2013-1-23,43.7,31.6,23.0,24.5,14.9,0.0,69,50,35,30.27,30.07,7,1,14,0.00
2013-1-24,42.0,32.5,23.8,31.0,15.8,3.4,72,51,28,30.35,30.03,11,3,17,0.00
2013-1-25,38.2,27.8,21.1,36.7,19.4,3.2,95,72,43,30.38,30.05,13,3,21,0.02
2013-1-26,46.7,36.4,30.8,35.9,27.9,22.2,95,74,39,30.29,30.10,7,2,11,0.00
2013-1-27,44.9,34.7,26.5,32.1,27.7,24.3,94,77,56,30.45,30.31,7,1,12,0.02
2013-1-28,67.9,49.0,36.1,48.8,39.3,30.0,86,70,43,30.40,30.24,11,1,11,0.00
2013-1-29,72.1,56.9,45.2,57.4,48.4,41.3,92,75,42,30.26,30.05,8,1,14,0.00
2013-1-30,61.7,56.6,43.5,59.1,54.1,39.7,98,91,83,30.05,29.58,16,3,24,2.76
2013-1-31,43.7,33.5,28.1,40.7,23.8,18.5,92,68,45,30.01,29.64,12,2,16,0.05
2013-2-1,40.1,25.8,18.4,30.7,14.7,7.4,90,63,43,30.30,29.93,9,2,18,0.00
2013-2-2,41.3,29.6,18.9,32.3,18.9,7.3,95,66,38,30.30,30.02,6,1,11,0.00
2013-2-3,42.0,33.3,27.6,33.0,26.9,20.7,93,78,53,30.07,29.93,11,2,20,0.06
2013-2-4,52.0,35.5,24.1,27.4,22.6,19.2,85,62,32,30.11,29.98,10,1,11,0.00
2013-2-5,56.6,43.5,34.7,38.8,31.4,23.2,76,63,45,30.03,29.94,5,1,11,0.00
2013-2-6,59.1,45.7,35.3,36.7,28.3,21.2,83,54,24,30.24,30.03,6,1,10,0.00
2013-2-7,45.6,42.3,40.5,40.5,31.5,20.9,97,69,39,30.24,30.00,6,0,12,0.36
2013-2-8,50.1,40.7,32.9,43.7,36.8,27.4,98,87,55,30.17,29.94,14,2,15,0.01
2013-2-9,57.6,40.1,27.2,27.3,23.1,16.7,87,56,20,30.31,30.14,7,2,14,0.00
2013-2-10,49.8,44.5,39.8,46.0,26.0,18.0,96,52,31,30.35,30.12,13,4,19,0.35
2013-2-11,55.2,49.7,43.8,51.4,44.7,29.2,98,84,52,30.16,30.04,9,1,15,0.02
2013-2-12,50.4,43.0,36.6,38.1,29.1,20.5,95,60,31,30.16,29.94,7,1,9,0.14
2013-2-13,49.0,39.9,34.1,43.2,36.8,30.2,96,89,67,29.96,29.69,11,2,13,0.11
2013-2-14,54.0,40.0,31.3,30.6,27.7,22.1,87,64,31,30.06,29.93,9,1,11,0.00
2013-2-15,55.7,40.1,31.4,37.3,31.0,27.4,93,73,35,30.11,29.98,7,1,8,0.03
2013-2-16,32.9,28.9,22.1,29.3,22.6,12.6,92,78,49,30.04,29.89,10,2,19,0.00
2013-2-17,34.9,25.6,19.2,13.6,10.5,7.8,67,53,34,30.22,29.99,14,3,16,0.00
2013-2-18,53.3,37.0,22.2,25.6,19.2,12.2,79,50,31,30.30,30.14,17,2,22,0.00
2013-2-19,53.0,41.4,32.0,40.0,26.6,13.3,90,58,31,30.16,29.91,15,2,17,0.00
2013-2-20,44.8,34.1,27.2,17.3,9.7,0.8,59,39,17,30.15,30.08,11,2,13,0.00
2013-2-21,61.8,40.6,24.1,35.3,14.9,-4.2,88,42,8,30.20,30.07,7,1,9,0.19
2013-2-22,44.1,39.3,34.7,40.4,35.7,29.7,96,87,74,30.23,30.07,12,3,21,0.26
2013-2-23,54.1,45.6,39.2,50.5,43.2,37.9,98,92,76,30.09,29.88,3,0,5,0.24
2013-2-24,54.9,43.8,35.5,40.5,29.8,21.1,94,62,27,30.08,29.90,7,1,12,0.00
2013-2-25,49.0,38.2,31.3,29.3,25.1,21.8,81,60,38,30.12,29.99,12,2,17,0.00
2013-2-26,42.7,37.8,33.0,41.7,35.8,29.0,98,93,80,29.99,29.59,18,4,25,0.82
2013-2-27,56.4,42.3,35.3,37.3,33.1,29.8,93,72,44,29.83,29.69,8,1,12,0.08
2013-2-28,36.6,32.7,30.2,33.8,27.2,23.8,93,80,69,29.93,29.77,7,2,9,0.01
2013-3-1,36.0,31.9,28.9,30.2,28.3,25.6,94,87,75,29.95,29.90,6,1,9,0.00
2013-3-2,37.8,30.8,25.7,29.4,26.7,20.4,94,85,64,29.96,29.87,8,2,13,0.03
2013-3-3,31.5,25.4,21.9,20.9,17.1,14.3,86,71,53,30.03,29.94,12,3,16,0.00
2013-3-4,52.3,36.1,22.7,24.3,16.3,9.6,76,48,18,30.12,30.01,9,1,9,0.00
2013-3-5,49.0,41.8,32.7,47.0,36.0,23.9,97,81,47,30.07,29.69,11,1,11,0.78
2013-3-6,32.6,27.6,24.5,29.4,24.9,21.4,94,89,82,30.16,29.75,15,3,17,0.00
2013-3-7,39.1,30.5,26.6,30.3,25.8,23.5,92,83,67,30.28,30.15,9,2,13,0.10
2013-3-8,48.9,34.7,25.2,28.0,24.9,22.2,91,70,41,30.33,30.24,11,2,14,0.02
2013-3-9,65.5,45.6,28.0,29.9,25.5,23.5,86,51,24,30.32,30.22,9,2,10,0.00
2013-3-10,64.1,54.3,48.8,33.7,29.8,25.8,47,39,29,30.28,30.16,14,4,17,0.00
2013-3-11,54.8,51.2,48.1,50.5,46.2,33.5,96,84,47,30.18,29.88,16,4,27,0.72
2013-3-12,52.4,43.0,36.4,51.2,37.9,31.5,96,83,58,30.07,29.84,9,2,13,0.44
2013-3-13,43.3,35.8,28.1,31.9,24.8,16.0,84,66,41,30.18,30.05,12,3,16,0.00
2013-3-14,44.8,32.0,23.2,18.6,15.7,11.7,73,53,27,30.27,30.18,9,2,13,0.00
2013-3-15,68.2,48.1,30.6,41.5,30.0,15.5,84,53,23,30.20,29.98,8,1,13,0.00
2013-3-16,76.7,62.5,52.1,46.2,42.9,40.6,65,50,30,29.98,29.84,7,1,14,0.00
2013-3-17,72.5,61.1,48.4,48.1,45.2,41.5,82,58,34,30.04,29.92,10,2,17,0.00
2013-3-18,48.3,42.9,38.5,43.5,40.4,36.5,97,91,83,30.07,29.87,12,2,14,0.56
2013-3-19,55.5,44.2,35.5,43.0,30.1,15.9,98,63,29,30.11,29.90,9,2,13,0.00
2013-3-20,53.1,39.4,29.8,30.2,15.3,6.8,91,40,19,30.12,29.87,8,2,16,0.00
2013-3-21,35.4,27.7,20.1,27.2,14.2,10.3,91,58,36,29.96,29.84,13,2,22,0.01
2013-3-22,46.8,34.1,21.7,24.2,14.7,9.9,74,48,22,30.03,29.95,7,1,9,0.00
2013-3-23,55.5,43.8,35.8,42.7,34.5,21.8,92,70,48,30.03,29.88,9,1,12,0.02
2013-3-24,46.4,42.0,37.7,42.0,39.2,36.1,96,90,77,29.93,29.56,13,2,14,0.83
2013-3-25,37.6,32.6,28.8,36.2,25.6,19.8,97,76,53,29.92,29.58,15,3,17,0.06
2013-3-26,35.1,29.6,26.6,28.8,25.9,23.1,93,86,72,30.19,29.92,9,3,12,0.02
2013-3-27,42.7,33.0,28.3,27.5,25.0,22.0,92,73,50,30.27,30.17,7,2,14,0.03
2013-3-28,50.0,37.0,27.4,24.1,21.9,19.5,79,57,30,30.30,30.22,11,2,14,0.00
2013-3-29,54.4,39.4,29.1,37.9,27.9,17.0,95,67,24,30.33,30.25,10,1,11,0.09
2013-3-30,61.7,48.6,38.4,44.5,39.2,37.4,98,73,43,30.25,30.08,7,1,9,0.19
2013-3-31,63.3,52.9,46.8,51.5,48.2,38.7,97,85,56,30.08,29.91,7,1,7,0.49
2013-4-1,59.2,50.2,41.3,48.6,41.8,31.3,98,75,46,30.06,29.93,8,1,16,0.01
2013-4-2,55.4,44.5,35.1,32.7,23.8,13.9,70,47,21,30.19,30.05,11,2,11,0.00
2013-4-3,58.6,45.3,31.9,26.2,20.2,14.8,60,38,19,30.26,30.17,7,1,9,0.00
2013-4-4,47.6,38.8,34.4,35.9,28.7,13.4,96,72,29,30.25,29.99,11,1,15,0.46
2013-4-5,55.8,43.5,36.9,43.4,37.6,35.2,97,82,48,30.12,29.97,10,2,14,0.00
2013-4-6,67.5,52.3,36.1,38.8,33.7,28.6,90,54,25,30.24,30.12,11,2,14,0.00
2013-4-7,70.8,58.5,47.9,44.2,38.2,31.1,60,47,35,30.24,30.13,8,2,16,0.00
2013-4-8,74.4,63.3,50.2,50.8,47.1,42.6,79,57,41,30.20,30.11,9,2,15,0.00
2013-4-9,81.5,67.0,53.0,54.6,51.6,48.5,86,60,38,30.27,30.16,9,1,12,0.00
2013-4-10,85.5,70.3,55.2,54.9,52.5,48.1,85,56,29,30.19,30.04,11,2,14,0.00
2013-4-11,75.5,67.5,61.1,62.1,54.6,50.4,95,65,43,30.06,29.79,18,2,19,0.89
2013-4-12,65.6,59.4,49.3,59.6,50.3,36.8,97,74,41,29.98,29.74,11,2,16,0.76
2013-4-13,70.0,56.3,46.0,39.3,35.5,28.6,72,48,23,30.12,29.97,8,2,15,0.00
2013-4-14,68.3,56.4,43.9,48.3,39.1,35.2,79,55,31,30.15,30.03,15,2,23,0.00
2013-4-15,69.9,58.1,51.0,54.5,51.8,46.8,97,81,54,30.25,30.03,11,2,15,0.04
2013-4-16,80.0,66.3,56.9,57.5,55.1,52.4,90,70,39,30.33,30.23,9,2,13,0.00
2013-4-17,73.0,64.4,59.3,62.5,58.0,54.9,96,80,64,30.32,30.20,10,1,11,0.24
2013-4-18,72.9,66.1,60.0,59.5,56.3,52.6,87,72,50,30.20,30.02,17,3,19,0.00
2013-4-19,66.5,58.3,41.5,62.1,54.8,36.1,96,88,78,30.03,29.84,13,4,21,0.45
2013-4-20,57.3,45.0,34.1,36.6,30.9,28.4,84,60,35,30.31,30.03,10,3,14,0.00
2013-4-21,63.1,48.6,36.2,35.6,31.3,25.5,88,55,29,30.43,30.30,12,2,14,0.00
2013-4-22,66.6,51.6,39.5,40.5,35.9,29.2,87,58,32,30.40,30.22,10,1,11,0.00
2013-4-23,73.8,55.9,39.2,44.7,35.8,27.2,77,49,22,30.29,30.13,8,1,11,0.00
2013-4-24,71.2,59.2,48.6,58.8,49.4,44.1,93,72,44,30.18,30.07,7,1,14,0.05
2013-4-25,66.2,51.0,39.9,45.7,33.3,6.7,92,59,10,30.36,30.18,7,2,11,0.00
2013-4-26,68.0,53.9,39.3,43.1,33.5,28.9,77,49,28,30.43,30.31,9,1,13,0.00
2013-4-27,54.8,51.5,49.4,50.7,47.9,43.2,97,88,65,30.40,30.26,7,1,9,0.68
2013-4-28,51.9,50.2,46.5,51.1,48.0,42.8,98,92,78,30.28,30.03,10,2,18,1.06
2013-4-29,74.1,59.9,50.2,57.3,52.5,47.7,99,80,42,30.12,30.00,5,0,10,0.20
2013-4-30,76.9,62.4,52.3,58.5,53.7,50.7,99,76,42,30.22,30.05,7,1,11,0.00
2013-5-1,67.6,59.3,51.9,55.0,51.6,49.8,94,77,55,30.32,30.22,10,1,14,0.00
2013-5-2,66.1,57.3,53.4,55.2,52.0,49.8,92,83,66,30.33,30.26,9,2,11,0.00
2013-5-3,61.7,55.8,52.4,51.4,48.9,45.8,90,78,60,30.27,30.11,11,2,21,0.00
2013-5-4,55.0,50.4,46.3,48.1,44.7,38.4,93,81,72,30.12,29.99,11,3,21,0.24
2013-5-5,53.5,49.6,46.3,50.3,47.2,44.4,97,92,81,30.02,29.85,17,3,23,1.51
2013-5-6,66.6,55.8,46.8,50.7,46.5,36.4,96,74,36,29.97,29.85,16,2,17,0.03
2013-5-7,67.4,53.6,42.5,49.6,45.6,41.3,98,77,41,30.02,29.93,7,1,11,0.00
2013-5-8,65.6,56.4,50.2,56.4,52.7,49.1,98,88,64,30.12,29.99,6,0,8,0.07
2013-5-9,77.5,61.9,48.7,59.2,52.5,48.0,99,75,40,30.19,30.10,8,1,12,0.00
2013-5-10,76.4,64.2,52.9,64.2,55.7,51.0,95,75,49,30.20,30.05,10,1,16,0.05
2013-5-11,73.6,63.1,55.4,60.5,57.2,53.7,96,82,61,30.07,29.94,5,0,7,0.17
2013-5-12,60.8,53.0,45.7,53.6,42.0,31.8,95,69,36,30.14,29.99,7,1,15,0.00
2013-5-13,61.6,49.6,39.6,35.3,31.8,26.9,78,53,28,30.24,30.14,11,1,14,0.00
2013-5-14,76.0,56.9,39.2,50.3,39.9,32.7,87,56,30,30.28,30.15,7,1,8,0.00
2013-5-15,85.0,68.9,51.5,58.0,52.2,48.2,91,59,31,30.22,30.09,7,1,9,0.00
2013-5-16,78.7,67.6,59.6,57.6,53.5,50.4,78,62,40,30.16,30.08,6,0,9,0.00
2013-5-17,80.6,67.4,55.5,61.0,55.6,52.0,92,69,39,30.20,30.12,10,1,13,0.00
2013-5-18,68.2,64.3,60.8,62.8,59.9,55.0,97,86,65,30.19,30.14,8,1,9,1.00
2013-5-19,75.4,66.1,62.1,65.5,62.3,59.4,96,88,69,30.20,30.11,7,0,11,0.05
2013-5-20,82.7,69.4,59.9,66.6,62.4,59.0,98,81,51,30.21,30.12,7,0,8,0.00
2013-5-21,85.7,71.1,59.8,67.3,62.0,58.6,98,76,41,30.17,30.06,8,1,11,0.00
2013-5-22,79.4,67.2,59.5,66.5,62.1,58.1,97,85,54,30.12,29.99,8,0,14,0.64
2013-5-23,78.7,66.3,57.5,64.1,59.2,52.7,98,81,42,30.06,29.96,7,1,12,0.04
2013-5-24,63.7,57.4,48.7,54.8,46.6,37.0,93,70,43,30.29,30.04,12,2,16,0.00
2013-5-25,72.6,56.5,43.7,44.3,39.1,31.1,83,56,22,30.37,30.26,12,1,12,0.00
2013-5-26,73.7,60.8,53.2,50.4,46.8,41.6,85,62,37,30.34,30.25,6,0,10,0.00
2013-5-27,79.6,65.2,50.5,58.6,53.0,47.6,92,67,45,30.33,30.22,9,1,15,0.00
2013-5-28,82.2,71.1,63.0,60.9,58.0,54.3,83,65,41,30.30,30.23,10,1,16,0.00
2013-5-29,84.8,71.6,58.9,61.8,58.4,50.9,94,66,35,30.33,30.24,7,1,11,0.00
2013-5-30,83.1,70.6,60.5,62.0,59.5,57.4,92,70,45,30.36,30.25,10,1,13,0.00
2013-5-31,82.1,72.0,64.7,62.0,59.4,56.4,87,66,43,30.31,30.21,9,2,15,0.00
2013-6-1,81.2,72.9,65.7,63.6,60.9,57.0,86,68,44,30.23,30.13,10,1,20,0.00
2013-6-2,69.6,65.7,62.6,66.7,63.7,61.7,98,93,82,30.16,30.03,8,1,10,0.87
2013-6-3,78.9,68.5,62.5,66.6,62.3,59.0,99,82,54,30.09,30.00,8,1,9,0.00
2013-6-4,81.0,69.1,58.7,63.1,60.5,57.2,96,76,50,30.17,30.08,6,1,10,0.00
2013-6-5,79.4,69.2,62.3,65.9,62.8,60.2,95,81,61,30.19,30.06,10,1,17,0.23
2013-6-6,76.0,68.4,63.1,67.5,64.6,62.2,98,88,71,30.10,29.90,6,1,8,0.05
2013-6-7,79.4,67.8,61.4,69.1,64.5,60.2,98,90,65,29.97,29.82,3,0,11,0.65
2013-6-8,78.8,67.3,58.9,67.4,61.9,58.0,98,84,56,30.20,29.96,4,0,9,0.29
2013-6-9,79.3,67.7,61.0,69.8,64.3,60.0,98,90,63,30.25,30.14,12,1,15,1.44
2013-6-10,77.5,68.5,63.7,67.7,63.8,60.1,97,86,60,30.14,30.02,8,1,15,0.31
2013-6-11,80.5,69.7,62.0,66.1,63.3,61.1,98,82,54,30.15,30.07,5,0,8,0.06
2013-6-12,87.1,74.2,61.6,73.6,67.3,60.4,99,81,55,30.17,30.08,6,0,9,0.00
2013-6-13,87.0,72.0,64.4,70.8,65.5,61.8,97,82,44,30.08,29.89,4,0,9,0.54
2013-6-14,74.4,65.3,57.0,63.2,57.6,53.1,98,78,53,30.16,29.97,5,0,10,0.00
2013-6-15,81.7,67.6,53.9,62.9,57.1,52.3,96,72,44,30.25,30.16,5,0,7,0.00
2013-6-16,83.0,71.5,59.9,68.5,62.4,58.2,95,75,45,30.25,30.14,4,0,9,0.00
2013-6-17,80.0,70.7,64.4,70.3,66.7,63.5,98,88,64,30.16,30.07,3,0,5,0.27
2013-6-18,75.8,67.8,62.5,70.6,65.8,60.4,98,93,77,30.08,29.95,7,0,8,0.09
2013-6-19,79.5,67.4,57.6,66.8,61.8,56.8,99,84,59,30.23,30.05,5,0,8,0.15
2013-6-20,79.8,68.8,60.2,66.2,62.8,59.5,99,83,58,30.33,30.22,9,1,10,0.01
2013-6-21,82.4,69.5,61.6,65.6,62.0,59.5,97,79,48,30.36,30.27,8,0,11,0.00
2013-6-22,84.0,70.1,58.8,64.5,60.6,55.8,97,74,44,30.35,30.22,4,0,8,0.00
2013-6-23,81.1,70.4,60.1,68.4,63.8,59.0,97,81,54,30.32,30.24,8,0,8,0.00
2013-6-24,86.5,72.4,63.2,69.2,65.7,61.8,98,81,51,30.33,30.21,8,0,9,0.00
2013-6-25,70.3,69.8,69.3,66.1,65.7,65.3,88,87,85,30.26,30.26,3,0,4,0.00
2013-6-26,82.5,71.5,64.2,73.1,67.7,63.4,98,89,66,30.18,30.05,4,0,9,0.04
2013-6-27,83.7,71.3,63.2,73.2,67.7,62.2,99,89,66,30.09,29.93,5,0,7,0.24
2013-6-28,84.1,72.4,64.3,71.8,67.4,63.0,99,86,57,29.98,29.80,6,0,7,0.05
2013-6-29,82.3,70.1,61.0,66.6,61.5,56.9,98,77,43,29.86,29.80,6,0,8,0.01
2013-6-30,83.8,69.7,59.1,67.3,60.9,56.7,97,77,43,29.95,29.84,10,0,11,0.50
2013-7-1,76.9,68.2,64.1,71.1,65.3,63.3,98,91,70,30.07,29.92,7,0,8,0.80
2013-7-2,83.4,70.9,63.5,70.1,65.5,62.9,98,84,51,30.23,30.06,11,2,14,0.07
2013-7-3,71.9,66.6,61.6,71.2,65.0,60.8,99,95,88,30.33,30.20,8,1,12,2.02
2013-7-4,76.7,66.2,61.6,70.7,65.1,61.1,99,96,78,30.31,30.25,13,1,17,2.11
2013-7-5,81.1,70.7,66.7,68.2,66.1,64.6,96,86,61,30.33,30.26,9,2,12,0.08
2013-7-6,80.2,69.9,65.4,69.4,66.9,64.2,98,91,65,30.31,30.22,9,1,12,1.23
2013-7-7,78.5,70.8,67.4,72.8,68.4,66.5,98,92,73,30.28,30.21,5,0,8,0.92
2013-7-8,84.5,71.5,65.5,71.0,67.3,64.9,99,88,53,30.31,30.23,5,0,6,0.04
2013-7-9,87.5,73.8,65.9,72.4,67.9,63.8,98,84,48,30.29,30.18,5,0,7,0.18
2013-7-10,85.6,71.3,65.4,74.3,68.6,64.6,99,92,62,30.25,30.09,6,0,19,1.89
2013-7-11,76.7,69.6,65.4,72.6,67.9,65.0,99,95,80,30.11,30.02,4,0,4,0.02
2013-7-12,80.1,71.1,64.1,70.0,66.4,61.9,99,86,64,30.13,30.02,7,0,11,0.15
2013-7-13,76.4,68.4,61.4,67.6,64.2,60.5,98,87,70,30.22,30.11,7,1,10,0.01
2013-7-14,72.8,68.3,65.5,70.4,67.0,64.6,99,96,90,30.38,30.21,7,1,10,0.96
2013-7-15,85.0,72.4,65.8,69.6,66.6,64.5,99,84,53,30.43,30.37,7,0,10,0.00
2013-7-16,87.1,72.1,63.7,74.2,68.0,62.8,99,88,58,30.44,30.37,3,0,8,0.62
2013-7-17,84.5,71.8,65.2,75.5,69.6,64.6,99,93,67,30.41,30.30,3,0,7,0.64
2013-7-18,85.0,73.8,66.5,75.3,69.6,66.2,99,88,62,30.34,30.21,5,0,8,0.00
2013-7-19,89.3,75.5,67.7,74.2,69.7,66.7,99,84,55,30.26,30.12,9,0,9,0.00
2013-7-20,82.1,73.1,67.1,72.6,69.0,66.2,99,88,68,30.18,30.08,5,0,6,0.00
2013-7-21,84.3,71.3,66.1,72.8,68.1,64.9,98,90,63,30.15,30.08,8,0,8,0.04
2013-7-22,84.2,72.1,64.8,72.4,67.3,64.0,99,86,61,30.13,29.97,5,0,9,0.22
2013-7-23,83.5,71.6,65.2,72.6,67.3,64.1,99,87,61,30.06,29.95,6,0,8,0.05
2013-7-24,81.7,72.5,66.4,71.3,67.3,64.3,98,85,57,30.01,29.94,7,0,11,0.01
2013-7-25,82.9,71.1,64.6,67.1,64.2,59.9,98,81,48,30.16,30.00,3,0,7,0.00
2013-7-26,82.8,70.3,60.2,67.9,64.0,59.2,98,82,58,30.21,30.13,11,1,12,0.00
2013-7-27,79.8,69.8,65.3,71.1,66.8,64.1,99,91,62,30.16,30.02,4,0,6,0.52
2013-7-28,79.6,70.4,64.3,70.2,65.7,60.3,99,86,63,30.16,30.04,4,0,6,0.04
2013-7-29,80.3,67.7,59.3,64.1,59.2,53.5,96,76,42,30.31,30.15,4,0,8,0.00
2013-7-30,79.8,67.9,57.2,69.0,61.6,54.8,95,81,53,30.33,30.26,4,0,4,0.00
2013-7-31,73.7,68.5,64.3,68.9,66.2,62.8,99,93,83,30.29,30.09,7,0,9,0.21
2013-8-1,79.9,71.4,66.1,70.8,67.5,64.2,98,88,70,30.11,30.05,3,0,7,0.00
2013-8-2,82.4,70.0,60.5,70.8,64.8,59.6,99,85,58,30.17,30.08,3,0,5,0.01
2013-8-3,81.4,70.9,63.0,69.7,65.6,62.1,99,85,60,30.17,30.11,4,0,5,0.00
2013-8-4,78.1,70.6,64.6,69.4,65.2,60.8,98,84,64,30.18,30.11,7,1,11,0.01
2013-8-5,83.3,69.6,60.7,69.0,63.5,59.7,97,83,57,30.19,30.09,6,1,10,0.25
2013-8-6,85.2,71.8,63.0,70.4,66.4,62.1,99,85,55,30.16,30.09,6,0,9,0.02
2013-8-7,73.5,70.2,68.8,69.8,67.8,66.5,97,92,85,30.18,30.13,7,1,8,0.18
2013-8-8,80.6,71.9,65.2,72.3,68.5,64.6,99,90,72,30.18,30.14,7,0,11,0.00
2013-8-9,83.7,73.6,67.3,74.4,70.0,66.4,98,89,66,30.22,30.15,3,0,5,0.06
2013-8-10,81.8,72.4,66.1,74.1,69.7,65.3,99,92,72,30.26,30.19,6,0,9,0.17
2013-8-11,83.7,71.5,64.7,74.5,68.6,64.1,99,91,65,30.28,30.19,5,0,9,0.25
2013-8-12,84.1,72.0,65.7,74.3,69.0,65.1,99,91,65,30.24,30.12,3,0,9,0.00
2013-8-13,79.9,71.3,67.2,74.3,68.5,66.1,99,91,72,30.12,30.00,7,0,10,0.10
2013-8-14,73.7,66.7,61.5,66.1,62.1,57.6,96,86,64,30.18,30.03,5,0,11,0.00
2013-8-15,71.8,63.0,57.2,59.8,57.1,54.7,94,82,62,30.24,30.16,9,1,13,0.00
2013-8-16,75.1,64.1,55.6,61.2,57.2,54.2,97,80,56,30.24,30.17,7,1,11,0.00
2013-8-17,69.4,63.0,59.4,62.7,59.0,55.6,98,87,71,30.27,30.21,8,0,10,0.12
2013-8-18,76.3,65.5,61.1,68.5,63.7,60.4,99,94,75,30.31,30.22,4,0,7,0.12
2013-8-19,73.0,67.0,63.0,68.3,65.1,62.5,99,94,78,30.29,30.20,4,0,5,0.70
2013-8-20,80.6,69.6,63.7,70.8,66.4,63.1,99,90,69,30.31,30.22,6,0,9,0.00
2013-8-21,75.0,69.0,64.7,70.5,66.9,64.1,99,93,83,30.34,30.24,4,0,6,0.02
2013-8-22,82.9,72.1,65.2,70.7,67.3,64.7,99,86,59,30.29,30.17,4,0,7,0.00
2013-8-23,80.0,70.3,62.3,70.7,66.4,61.5,99,88,67,30.21,30.12,5,0,8,0.00
2013-8-24,81.1,68.8,61.7,65.2,61.4,56.5,99,80,44,30.39,30.21,8,1,12,0.00
2013-8-25,78.9,65.5,54.8,61.3,57.7,53.4,97,77,53,30.47,30.37,8,0,8,0.00
2013-8-26,78.2,65.6,55.1,65.9,60.5,54.2,98,85,62,30.42,30.26,5,0,9,0.00
2013-8-27,80.2,68.6,58.1,70.0,64.6,57.2,99,88,69,30.27,30.17,6,0,15,0.00
2013-8-28,83.5,72.9,65.3,72.0,68.3,64.4,98,86,64,30.19,30.10,5,0,7,0.00
2013-8-29,83.4,75.2,69.7,73.1,70.0,67.5,96,85,67,30.13,30.08,6,1,9,0.00
2013-8-30,83.0,73.0,66.8,71.7,68.8,65.9,98,87,64,30.17,30.08,7,1,10,0.05
2013-8-31,83.1,72.9,67.7,73.2,69.3,66.5,98,89,68,30.11,30.02,3,0,7,0.06
2013-9-1,85.5,72.5,66.1,73.4,68.5,65.4,99,88,59,30.06,29.97,7,0,10,0.22
2013-9-2,81.8,71.4,64.4,72.1,67.8,63.8,99,89,67,30.07,29.98,4,0,7,0.00
2013-9-3,80.7,69.7,61.8,69.0,65.3,60.9,98,87,61,30.13,29.99,9,1,10,0.22
2013-9-4,83.9,69.0,58.9,68.8,63.1,58.3,99,83,52,30.24,30.12,4,0,7,0.00
2013-9-5,79.9,67.5,57.9,66.8,62.0,56.9,99,84,59,30.27,30.21,4,0,7,0.00
2013-9-6,82.6,67.7,56.0,64.0,60.2,55.2,99,79,48,30.30,30.19,8,0,8,0.00
2013-9-7,81.4,67.6,59.3,65.6,61.9,58.5,99,83,53,30.24,30.13,8,0,8,0.00
2013-9-8,79.2,68.5,60.5,69.3,64.6,59.1,98,88,66,30.15,30.09,5,0,8,0.00
2013-9-9,84.8,71.5,63.1,69.3,65.6,62.2,99,84,53,30.26,30.15,9,1,11,0.00
2013-9-10,86.8,72.2,61.6,68.2,64.8,60.7,98,80,49,30.36,30.26,7,0,9,0.00
2013-9-11,85.2,71.1,62.4,71.3,66.5,61.5,98,87,60,30.35,30.23,5,0,8,0.01
2013-9-12,79.1,69.7,64.0,71.7,67.0,63.1,99,92,72,30.24,30.03,4,0,9,0.40
2013-9-13,73.8,65.4,56.7,64.6,59.5,51.0,99,83,54,30.05,29.98,6,1,9,0.02
2013-9-14,72.7,60.2,49.7,58.2,52.8,48.3,96,78,49,30.20,30.04,6,0,7,0.00
2013-9-15,75.8,63.3,53.5,62.0,57.2,52.4,97,82,57,30.29,30.20,7,1,10,0.00
2013-9-16,77.7,64.8,54.6,65.7,59.6,53.8,99,85,54,30.27,30.20,6,0,7,0.00
2013-9-17,71.1,62.6,58.4,60.5,55.8,52.8,94,79,58,30.36,30.26,7,1,11,0.00
2013-9-18,65.5,60.8,55.3,60.2,55.6,51.9,96,83,72,30.35,30.25,6,1,9,0.01
2013-9-19,77.7,66.7,60.4,66.2,62.2,59.1,97,86,63,30.27,30.19,5,0,13,0.00
2013-9-20,82.8,69.3,60.4,66.7,63.2,59.5,99,83,50,30.20,30.05,4,0,8,0.00
2013-9-21,68.6,63.6,59.9,64.7,61.7,59.6,99,94,84,30.05,29.85,8,1,14,0.86
2013-9-22,70.6,60.2,53.7,59.6,55.8,52.3,99,87,61,30.03,29.89,5,1,9,0.05
2013-9-23,77.6,61.6,50.4,61.9,55.3,49.7,99,82,47,30.14,30.03,5,0,8,0.01
2013-9-24,78.7,63.6,53.2,62.3,57.8,52.3,99,83,51,30.17,30.03,7,1,13,0.00
2013-9-25,62.7,60.7,58.0,61.3,59.1,57.2,98,95,89,30.04,29.96,5,0,7,0.49
2013-9-26,69.0,61.4,57.2,64.2,59.1,56.3,98,92,79,30.15,29.99,3,0,4,0.00
2013-9-27,75.8,61.8,53.0,62.9,56.9,52.5,99,85,54,30.25,30.15,4,0,7,0.00
2013-9-28,70.7,60.8,53.1,58.9,55.0,51.9,97,82,62,30.32,30.22,5,0,7,0.00
2013-9-29,71.3,60.2,51.7,60.4,54.3,49.3,94,82,58,30.25,30.12,4,0,7,0.00
2013-9-30,73.9,62.1,54.4,59.9,56.5,53.0,97,83,57,30.18,30.09,6,0,8,0.00
2013-10-1,75.3,62.4,54.1,63.2,57.4,53.3,98,85,54,30.25,30.16,4,0,5,0.00
2013-10-2,78.4,62.9,52.6,63.9,58.1,51.8,99,86,55,30.28,30.19,5,0,8,0.00
2013-10-3,80.4,65.9,56.9,64.9,60.3,56.1,98,84,53,30.25,30.17,3,0,6,0.00
2013-10-4,83.3,67.1,56.6,65.6,61.2,55.5,99,83,50,30.28,30.20,5,0,7,0.00
2013-10-5,83.7,67.9,57.3,66.4,61.5,56.5,99,82,47,30.26,30.15,6,0,10,0.00
2013-10-6,77.8,67.7,57.4,64.4,61.1,56.3,98,81,57,30.17,30.00,10,2,16,0.00
2013-10-7,67.7,58.4,52.1,63.5,55.2,49.3,98,90,70,30.13,29.93,7,1,8,0.99
2013-10-8,70.8,54.7,44.3,53.4,48.3,43.3,98,81,51,30.26,30.12,8,0,11,0.00
2013-10-9,73.1,56.7,45.5,59.6,50.2,43.6,97,81,54,30.29,30.19,4,0,7,0.00
2013-10-10,69.5,56.7,45.0,56.2,50.7,44.2,99,82,55,30.21,30.12,7,1,10,0.00
2013-10-11,72.9,60.3,50.4,57.5,53.6,48.5,98,81,47,30.15,30.07,7,1,9,0.00
2013-10-12,71.4,61.3,54.1,61.1,56.5,51.9,95,85,65,30.19,30.09,7,0,8,0.00
2013-10-13,71.6,63.3,58.6,63.1,60.1,57.2,97,90,73,30.30,30.19,6,0,9,0.07
2013-10-14,69.8,61.8,56.3,62.4,59.2,54.7,98,92,73,30.32,30.22,5,0,8,0.02
2013-10-15,68.5,59.2,53.5,59.0,55.5,52.4,98,88,70,30.27,30.14,7,1,9,0.00
2013-10-16,67.8,59.3,51.5,60.0,54.8,50.1,96,86,67,30.16,30.05,5,0,8,0.02
2013-10-17,73.1,61.5,54.3,64.5,59.0,51.8,98,92,72,30.07,29.94,6,0,8,0.02
2013-10-18,72.1,56.8,46.7,54.5,50.1,45.4,96,80,49,30.11,30.01,5,0,8,0.00
2013-10-19,61.3,55.0,48.9,55.3,51.4,46.1,97,88,66,30.05,29.95,4,0,7,0.00
2013-10-20,68.1,50.8,39.7,46.0,40.4,32.1,96,73,28,30.14,30.04,4,0,8,0.00
2013-10-21,68.8,52.8,40.6,51.7,46.3,39.5,98,81,46,30.19,30.06,8,1,9,0.00
2013-10-22,68.2,56.3,50.9,51.8,49.3,46.2,95,79,48,30.09,29.91,7,0,8,0.00
2013-10-23,52.1,46.1,36.1,47.6,38.1,28.9,93,74,52,30.09,29.84,11,2,15,0.00
2013-10-24,49.9,40.5,31.8,38.3,33.3,28.0,94,76,56,30.21,30.08,5,0,10,0.00
2013-10-25,45.3,36.5,29.1,37.4,28.3,25.5,92,74,48,30.36,30.21,8,1,15,0.02
2013-10-26,59.1,40.9,27.2,38.2,30.0,25.3,95,69,31,30.34,30.12,5,0,7,0.00
2013-10-27,65.9,53.9,46.1,49.7,43.6,37.3,88,69,51,30.18,30.11,6,1,9,0.00
2013-10-28,60.7,53.4,48.4,54.9,51.0,46.8,98,92,72,30.31,30.18,3,0,5,0.03
2013-10-29,71.4,57.8,48.0,54.1,49.8,46.4,98,78,42,30.39,30.29,8,0,8,0.00
2013-10-30,72.9,62.0,53.8,57.0,53.7,50.8,92,76,53,30.34,30.24,4,0,8,0.00
2013-10-31,64.3,61.7,60.0,59.7,55.3,51.5,90,79,69,30.25,29.90,13,3,18,0.00
2013-11-1,75.2,63.6,52.7,59.7,53.8,46.0,95,72,42,29.91,29.76,13,1,20,0.05
2013-11-2,57.6,50.4,42.8,46.1,41.2,36.8,85,71,48,30.08,29.86,6,1,10,0.00
2013-11-3,56.7,45.2,38.9,38.7,36.4,32.7,94,73,45,30.36,30.08,8,1,10,0.00
2013-11-4,58.9,46.2,37.2,33.3,31.0,29.0,83,57,34,30.48,30.36,9,2,16,0.00
2013-11-5,61.6,46.5,35.7,40.4,30.7,21.3,83,58,22,30.51,30.41,7,1,9,0.00
2013-11-6,67.8,55.4,46.8,52.2,48.6,40.5,96,79,53,30.42,30.18,15,2,15,0.00
2013-11-7,56.8,49.4,37.8,53.5,44.7,31.2,97,84,69,30.21,30.08,10,1,12,0.06
2013-11-8,51.0,40.2,33.3,31.2,26.0,21.8,78,59,32,30.33,30.21,10,2,14,0.00
2013-11-9,54.1,43.2,32.0,33.1,27.5,23.1,78,55,35,30.34,30.24,10,0,10,0.00
2013-11-10,63.1,50.4,40.9,40.4,31.7,25.8,67,50,30,30.31,30.23,9,1,11,0.00
2013-11-11,65.7,47.3,33.5,32.0,27.6,22.5,78,50,21,30.34,30.19,6,1,8,0.00
2013-11-12,50.4,39.4,23.8,39.0,26.8,13.7,84,62,44,30.45,30.13,11,2,14,0.00
2013-11-13,42.0,28.6,19.9,21.4,17.7,14.2,84,65,40,30.50,30.43,10,2,14,0.00
2013-11-14,60.6,39.6,23.1,25.8,18.4,10.2,87,50,14,30.43,30.29,5,1,8,0.00
2013-11-15,50.5,42.5,32.7,48.9,34.2,15.9,98,74,42,30.32,30.19,5,0,7,0.08
2013-11-16,63.4,53.3,48.4,53.4,50.2,47.4,98,90,70,30.29,30.20,9,1,15,0.00
2013-11-17,59.6,57.8,56.2,57.7,55.1,52.3,97,91,84,30.23,29.97,12,3,16,0.28
2013-11-18,61.0,54.2,43.5,57.8,42.4,30.5,99,67,38,30.11,29.94,8,2,12,0.02
2013-11-19,52.7,42.6,34.8,30.7,27.0,22.6,72,55,32,30.23,30.10,8,2,14,0.00
2013-11-20,51.6,41.5,34.1,30.3,26.2,24.0,73,56,35,30.41,30.22,11,2,15,0.00
2013-11-21,52.2,45.7,39.7,51.4,40.4,29.1,98,82,65,30.45,30.37,7,1,12,0.03
2013-11-22,65.4,57.4,52.0,57.5,54.1,50.6,97,89,73,30.40,30.21,5,1,7,0.01
2013-11-23,54.8,43.9,30.3,53.1,40.2,21.1,97,87,67,30.26,30.17,7,2,13,0.00
2013-11-24,32.1,25.4,20.0,21.4,12.6,7.2,73,59,39,30.43,30.25,10,3,17,0.00
2013-11-25,39.5,30.9,21.2,29.1,9.8,2.6,85,43,24,30.44,30.25,7,1,10,0.01
2013-11-26,42.4,39.6,32.1,41.9,38.8,28.3,99,97,84,30.26,29.72,4,1,13,1.50
2013-11-27,40.5,28.3,22.1,39.7,25.9,16.5,97,90,77,30.17,29.68,14,4,19,0.05
2013-11-28,46.0,28.9,17.0,29.0,21.1,14.8,93,74,37,30.42,30.17,7,1,10,0.12
2013-11-29,54.0,37.2,25.7,33.0,25.6,22.3,92,65,38,30.52,30.42,11,1,11,0.05
2013-11-30,49.3,37.0,28.5,26.6,24.0,22.2,82,60,39,30.54,30.33,8,1,9,0.00
2013-12-1,56.3,39.4,27.3,37.4,29.6,23.0,88,69,43,30.33,30.05,6,0,7,0.00
2013-12-2,55.3,44.1,34.6,40.8,35.8,30.8,90,74,53,30.05,29.85,4,0,6,0.00
2013-12-3,57.4,50.0,42.2,48.6,45.1,39.6,94,83,70,29.99,29.89,8,1,14,0.00
2013-12-4,66.3,56.3,51.0,55.2,51.9,48.4,94,86,66,30.12,29.98,10,1,14,0.00
2013-12-5,70.0,62.3,55.2,62.4,58.4,53.0,96,88,72,30.15,30.05,6,1,10,0.24
2013-12-6,69.0,63.4,50.6,62.7,59.8,48.9,97,89,77,30.13,30.02,11,2,17,0.21
2013-12-7,50.6,40.9,37.7,49.0,39.0,36.4,96,93,86,30.36,30.09,9,1,15,0.01
2013-12-8,42.3,38.4,36.3,38.8,36.5,34.7,98,93,86,30.34,30.17,13,3,15,0.13
2013-12-9,50.8,47.0,37.4,50.2,46.1,36.9,99,96,91,30.19,30.06,6,1,12,0.14
2013-12-10,44.3,37.2,27.6,43.8,34.2,23.3,98,89,73,30.32,29.97,9,2,11,0.21
2013-12-11,50.9,33.6,21.8,27.5,22.2,16.2,95,67,29,30.40,30.28,7,1,8,0.00
2013-12-12,37.0,29.8,25.1,22.1,16.8,7.4,83,60,31,30.40,30.31,6,1,13,0.00
2013-12-13,50.2,34.5,20.8,23.2,18.2,15.1,86,55,26,30.35,30.21,4,0,5,0.00
2013-12-14,45.8,41.5,37.6,44.0,34.9,18.6,98,80,39,30.24,29.81,12,1,14,0.47
2013-12-15,42.6,33.9,28.6,42.0,31.8,26.3,98,92,83,30.13,29.81,7,2,13,0.04
2013-12-16,54.9,38.6,26.5,33.3,28.5,25.0,96,70,35,30.19,30.10,6,1,9,0.00
2013-12-17,57.6,43.4,32.6,36.8,31.4,22.5,89,65,42,30.17,29.98,15,1,15,0.00
2013-12-18,46.0,34.9,27.1,23.7,16.4,7.0,78,50,20,30.29,30.12,6,1,11,0.00
2013-12-19,61.0,44.0,30.2,29.4,22.3,13.2,63,44,27,30.31,30.21,4,0,6,0.00
2013-12-20,64.6,52.0,41.5,47.4,32.2,22.3,79,48,31,30.24,30.14,9,1,10,0.00
2013-12-21,63.4,58.8,52.8,61.1,55.6,47.0,96,89,79,30.17,30.03,12,3,18,0.08
2013-12-22,64.2,58.5,55.0,61.6,56.9,53.7,99,94,81,30.14,30.01,10,1,14,1.80
2013-12-23,56.6,44.9,32.7,56.0,43.1,31.2,98,93,85,30.25,30.06,9,2,12,0.18
2013-12-24,32.6,28.1,20.0,31.1,22.8,16.1,94,80,66,30.37,30.23,10,2,14,0.00
2013-12-25,40.6,27.5,18.3,18.1,15.9,9.6,92,65,36,30.42,30.29,7,1,12,0.00
2013-12-26,46.5,33.1,23.4,26.2,22.4,16.1,84,66,40,30.34,30.25,7,1,8,0.00
2013-12-27,50.6,35.2,25.5,28.9,24.5,20.8,91,68,32,30.43,30.33,5,0,7,0.00
2013-12-28,49.2,36.5,27.3,42.8,29.7,22.0,97,78,34,30.39,30.08,8,0,9,0.27
2013-12-29,51.3,41.9,37.3,45.8,39.5,35.3,99,91,76,30.07,29.86,7,2,14,0.20
2013-12-30,42.2,38.3,32.9,38.7,35.0,30.3,92,88,82,30.16,30.02,5,1,8,0.00
2013-12-31,38.3,32.3,27.7,30.3,24.0,19.0,92,72,49,30.35,30.14,7,1,11,0.00
2014-1-1,45.9,35.8,26.3,29.2,25.1,19.3,87,66,45,30.34,30.11,8,1,13,0.00
2014-1-2,47.3,36.1,20.2,44.2,32.5,17.8,96,87,71,30.12,29.72,8,1,15,0.04